Weather History for Bremerton, WA

Change the Weather History Date:

Saturday, March 9, 2013

  Actual Average Record
Temperature  
Mean Temperature 40 °F -  
Max Temperature 53 °F 47 °F 57 °F (2005)
Min Temperature 26 °F 34 °F 26 °F (2013)
Degree Days  
Heating Degree Days 26    
Moisture  
Dew Point 31 °F    
Average Humidity 74    
Maximum Humidity 93    
Minimum Humidity 51    
Precipitation  
Precipitation 0.00 in - - ()
Sea Level Pressure  
Sea Level Pressure 30.42 in    
Wind  
Wind Speed 1 mph (South)    
Max Wind Speed 9 mph    
Max Gust Speed -    
Visibility 9 miles    
Events      
Averages and records for this station are not official NWS values.
T = Trace of Precipitation, MM = Missing Value Source: NWS Daily Summary

Daily Weather History Graph

Daily Weather History Graph

Search for Another Location

Airport:

Trip Planner

Search our weather history database for the weather conditions in past years. The results will help you decide how hot, cold, wet, or windy it might be!

Date:

Astronomy

Mar. 09, 2013 Rise Set
Actual Time 6:35 AM PST 6:08 PM PST
Civil Twilight 6:04 AM PST 6:39 PM PST
Nautical Twilight 5:29 AM PST 7:14 PM PST
Astronomical Twilight 4:53 AM PST 7:50 PM PST
Moon 5:09 AM PST (3/9) 4:11 PM PST (3/9)
Length of Visible Light 12h 34m
Length of Day
11h 33m
Waning Crescent, 5% of the Moon is Illuminated
Mar 9
Waning Crescent
Mar 11
New
Mar 19
First Quarter
Mar 27
Full
Apr 2
Last Quarter

Hourly Weather History & Observations

Time (PST) Temp. Windchill Dew Point Humidity Pressure Visibility Wind Dir Wind Speed Gust Speed Precip Events Conditions
12:15 AM 30.2 °F - 26.6 °F 86% 30.27 in 10.0 mi Calm Calm - N/A   Clear
12:35 AM 28.4 °F - 24.8 °F 86% 30.28 in 10.0 mi Calm Calm - N/A   Clear
12:55 AM 28.4 °F - 24.8 °F 86% 30.28 in 10.0 mi Calm Calm - N/A   Clear
1:15 AM 30.2 °F - 26.6 °F 86% 30.29 in 10.0 mi Calm Calm - N/A   Clear
1:35 AM 28.4 °F - 24.8 °F 86% 30.30 in 5.0 mi Calm Calm - N/A   Clear
1:55 AM 28.4 °F - 24.8 °F 86% 30.31 in 5.0 mi Calm Calm - N/A   Clear
2:15 AM 28.4 °F - 24.8 °F 86% 30.30 in 0.8 mi Calm Calm - N/A   Unknown
2:35 AM 28.4 °F - 23.0 °F 80% 30.30 in 10.0 mi Calm Calm - N/A   Clear
2:55 AM 28.4 °F - 23.0 °F 80% 30.30 in 9.0 mi Calm Calm - N/A   Clear
3:15 AM 28.4 °F - 23.0 °F 80% 30.32 in 7.0 mi Calm Calm - N/A   Clear
3:35 AM 26.6 °F - 21.2 °F 80% 30.32 in 10.0 mi Calm Calm - N/A   Clear
3:55 AM 26.6 °F - 23.0 °F 86% 30.32 in 10.0 mi Calm Calm - N/A   Clear
4:15 AM 28.4 °F - 24.8 °F 86% 30.32 in 10.0 mi Calm Calm - N/A   Clear
4:35 AM 26.6 °F - 21.2 °F 80% 30.32 in 5.0 mi Calm Calm - N/A   Clear
4:55 AM 28.4 °F - 24.8 °F 86% 30.33 in 10.0 mi Calm Calm - N/A   Clear
5:15 AM 26.6 °F - 21.2 °F 80% 30.35 in 10.0 mi Calm Calm - N/A   Clear
5:35 AM 26.6 °F - 23.0 °F 86% 30.36 in 0.5 mi Calm Calm - N/A   Unknown
5:55 AM 26.6 °F - 23.0 °F 86% 30.36 in 8.0 mi Calm Calm - N/A   Clear
6:15 AM 26.6 °F - 24.8 °F 93% 30.35 in 10.0 mi Calm Calm - N/A   Clear
6:35 AM 26.6 °F - 23.0 °F 86% 30.36 in 2.0 mi Calm Calm - N/A   Clear
6:55 AM 26.6 °F - 24.8 °F 93% 30.38 in 0.8 mi Calm Calm - N/A   Unknown
7:15 AM 26.6 °F - 24.8 °F 93% 30.39 in 10.0 mi Calm Calm - N/A   Mostly Cloudy
7:35 AM 30.2 °F - 26.6 °F 86% 30.40 in 10.0 mi Calm Calm - N/A   Mostly Cloudy
7:55 AM 33.8 °F - 30.2 °F 87% 30.40 in 10.0 mi Calm Calm - N/A   Mostly Cloudy
8:15 AM 37.4 °F - 33.8 °F 87% 30.42 in 10.0 mi Calm Calm - N/A   Partly Cloudy
8:35 AM 39.2 °F - 35.6 °F 87% 30.40 in 10.0 mi Calm Calm - N/A   Clear
8:55 AM 39.2 °F - 35.6 °F 87% 30.41 in 10.0 mi Calm Calm - N/A   Clear
9:15 AM 46.4 °F 45.2 °F 35.6 °F 66% 30.43 in 10.0 mi North 3.5 mph - N/A   Clear
9:35 AM 44.6 °F - 37.4 °F 76% 30.43 in 10.0 mi Calm Calm - N/A   Mostly Cloudy
9:55 AM 46.4 °F 44.3 °F 37.4 °F 71% 30.44 in 10.0 mi NW 4.6 mph - N/A   Overcast
10:15 AM 44.6 °F 43.1 °F 35.6 °F 71% 30.44 in 10.0 mi NNW 3.5 mph - N/A   Overcast
10:35 AM 46.4 °F 45.2 °F 37.4 °F 71% 30.44 in 10.0 mi West 3.5 mph - N/A   Mostly Cloudy
10:55 AM 46.4 °F - 37.4 °F 71% 30.46 in 10.0 mi Calm Calm - N/A   Overcast
11:15 AM 46.4 °F 44.3 °F 37.4 °F 71% 30.46 in 10.0 mi SE 4.6 mph - N/A   Mostly Cloudy
11:35 AM 48.2 °F - 35.6 °F 62% 30.46 in 10.0 mi SW 5.8 mph - N/A   Partly Cloudy
11:55 AM 48.2 °F - 35.6 °F 62% 30.47 in 10.0 mi SSE 5.8 mph - N/A   Clear
12:15 PM 46.4 °F 44.3 °F 35.6 °F 66% 30.46 in 10.0 mi East 4.6 mph - N/A   Clear
12:35 PM 50.0 °F - 35.6 °F 58% 30.46 in 10.0 mi SW 6.9 mph - N/A   Scattered Clouds
12:55 PM 50.0 °F - 35.6 °F 58% 30.46 in 10.0 mi South 3.5 mph - N/A   Scattered Clouds
1:15 PM 50.0 °F - 35.6 °F 58% 30.46 in 10.0 mi SSW 6.9 mph - N/A   Scattered Clouds
1:35 PM 51.8 °F - 35.6 °F 54% 30.45 in 10.0 mi SW 5.8 mph - N/A   Clear
1:55 PM 51.8 °F - 35.6 °F 54% 30.45 in 10.0 mi South 9.2 mph - N/A   Clear
2:15 PM 53.6 °F - 35.6 °F 51% 30.46 in 10.0 mi SSW 5.8 mph - N/A   Clear
2:35 PM 53.6 °F - 37.4 °F 54% 30.45 in 10.0 mi South 6.9 mph - N/A   Clear
2:55 PM 53.6 °F - 37.4 °F 54% 30.45 in 10.0 mi WSW 9.2 mph - N/A   Clear
3:15 PM 53.6 °F - 37.4 °F 54% 30.44 in 10.0 mi WSW 4.6 mph - N/A   Partly Cloudy
3:35 PM 53.6 °F - 37.4 °F 54% 30.45 in 10.0 mi South 4.6 mph - N/A   Scattered Clouds
3:55 PM 53.6 °F - 37.4 °F 54% 30.45 in 10.0 mi WSW 5.8 mph - N/A   Partly Cloudy
4:15 PM 53.6 °F - 37.4 °F 54% 30.45 in 10.0 mi South 3.5 mph - N/A   Scattered Clouds
4:35 PM 53.6 °F - 35.6 °F 51% 30.45 in 10.0 mi South 4.6 mph - N/A   Partly Cloudy
4:55 PM 51.8 °F - 35.6 °F 54% 30.46 in 10.0 mi SSE 3.5 mph - N/A   Clear
5:15 PM 51.8 °F - 35.6 °F 54% 30.45 in 10.0 mi South 3.5 mph - N/A   Clear
5:35 PM 51.8 °F - 35.6 °F 54% 30.46 in 10.0 mi Calm Calm - N/A   Clear
5:55 PM 50.0 °F - 33.8 °F 54% 30.47 in 10.0 mi Calm Calm - N/A   Clear
6:15 PM 46.4 °F - 35.6 °F 66% 30.48 in 10.0 mi Calm Calm - N/A   Clear
6:35 PM 42.8 °F 40.1 °F 33.8 °F 70% 30.48 in 10.0 mi South 4.6 mph - N/A   Clear
6:55 PM 42.8 °F 40.1 °F 33.8 °F 70% 30.49 in 10.0 mi South 4.6 mph - N/A   Clear
7:15 PM 39.2 °F - 30.2 °F 70% 30.50 in 10.0 mi Calm Calm - N/A   Clear
7:35 PM 39.2 °F - 32.0 °F 75% 30.50 in 10.0 mi Calm Calm - N/A   Clear
7:55 PM 37.4 °F - 30.2 °F 75% 30.49 in 10.0 mi Calm Calm - N/A   Clear
8:15 PM 37.4 °F - 30.2 °F 75% 30.50 in 10.0 mi Calm Calm - N/A   Clear
8:35 PM 33.8 °F 30.8 °F 28.4 °F 81% 30.50 in 10.0 mi SE 3.5 mph - N/A   Clear
8:55 PM 35.6 °F - 28.4 °F 75% 30.51 in 10.0 mi Calm Calm - N/A   Clear
9:15 PM 33.8 °F - 28.4 °F 81% 30.50 in 10.0 mi Calm Calm - N/A   Clear
9:35 PM 33.8 °F 30.8 °F 28.4 °F 81% 30.52 in 10.0 mi ESE 3.5 mph - N/A   Clear
9:55 PM 33.8 °F - 28.4 °F 81% 30.52 in 10.0 mi Calm Calm - N/A   Clear
10:15 PM 33.8 °F - 28.4 °F 81% 30.51 in 10.0 mi Calm Calm - N/A   Clear
10:35 PM 35.6 °F 32.8 °F 30.2 °F 81% 30.52 in 10.0 mi East 3.5 mph - N/A   Clear
10:55 PM 33.8 °F 30.8 °F 28.4 °F 81% 30.52 in 10.0 mi East 3.5 mph - N/A   Clear
11:15 PM 33.8 °F 30.8 °F 28.4 °F 81% 30.51 in 10.0 mi ESE 3.5 mph - N/A   Clear
11:35 PM 33.8 °F - 28.4 °F 81% 30.51 in 10.0 mi Calm Calm - N/A   Clear
11:55 PM 33.8 °F - 28.4 °F 81% 30.52 in 10.0 mi Calm Calm - N/A   Clear